This is the latest recevied weather packets stored in our database for station/object W2OBX. If no packets are shown the sender has not sent any weather packets the latest 10 day(s).
| Time | Temp. | Humidity | Pressure | Rain* | Wind** | Luminosity | Snow |
|---|---|---|---|---|---|---|---|
| 1777756457 | 16.67° C | 38% | 1014.3 hPa | 0 mm | - | 71 W/m² | - |
| 1777756155 | 16.67° C | 38% | 1014.4 hPa | 0 mm | - | 224 W/m² | - |
| 1777755852 | 16.11° C | 37% | 1014.4 hPa | 0 mm | - | 78 W/m² | - |
| 1777755549 | 16.11° C | 38% | 1014.4 hPa | 0 mm | - | 131 W/m² | - |
| 1777755245 | 16.11° C | 40% | 1014.4 hPa | 0 mm | - | 83 W/m² | - |
| 1777754942 | 16.67° C | 38% | 1014.5 hPa | 0 mm | - | 46 W/m² | - |
| 1777754639 | 16.11° C | 38% | 1014.4 hPa | 0 mm | - | 311 W/m² | - |
| 1777754336 | 16.11° C | 37% | 1014.5 hPa | 0 mm | - | 415 W/m² | - |
| 1777754034 | 16.67° C | 36% | 1014.4 hPa | 0 mm | - | 71 W/m² | - |
| 1777753729 | 16.67° C | 40% | 1014.4 hPa | 0 mm | - | 73 W/m² | - |
| 1777753427 | 16.11° C | 37% | 1014.4 hPa | 0 mm | - | 117 W/m² | - |
| 1777753125 | 16.67° C | 34% | 1014.3 hPa | 0 mm | - | 76 W/m² | - |
| 1777752821 | 16.67° C | 35% | 1014.4 hPa | 0 mm | - | 54 W/m² | - |
| 1777752517 | 17.78° C | 38% | 1014.3 hPa | 0 mm | - | 61 W/m² | - |
| 1777752213 | 17.78° C | 35% | 1014.3 hPa | 0 mm | - | 125 W/m² | - |
| 1777751911 | 17.78° C | 35% | 1014.6 hPa | 0 mm | - | 190 W/m² | - |
| 1777751607 | 17.78° C | 38% | 1014.6 hPa | 0 mm | - | 422 W/m² | - |
| 1777751304 | 18.33° C | 34% | 1014.6 hPa | 0 mm | - | 96 W/m² | - |
| 1777751001 | 18.33° C | 36% | 1014.6 hPa | 0 mm | - | 705 W/m² | - |
| 1777750697 | 17.78° C | 35% | 1014.6 hPa | 0 mm | - | 688 W/m² | - |
| 1777750394 | 17.78° C | 36% | 1014.6 hPa | 0 mm | - | 662 W/m² | - |
| 1777750089 | 17.22° C | 34% | 1014.6 hPa | 0 mm | - | 409 W/m² | - |
| 1777749787 | 17.22° C | 32% | 1014.6 hPa | 0 mm | - | 474 W/m² | - |
| 1777749484 | 17.78° C | 35% | 1014.5 hPa | 0 mm | - | 758 W/m² | - |
| 1777749182 | 17.22° C | 41% | 1014.4 hPa | 0 mm | - | 779 W/m² | - |
* Rain latest hour (hover to see other rain measurements)
** Current wind speed in m/s (hover to see current wind gust speed)